Date,TemperatureHighF,TemperatureAvgF,TemperatureLowF,DewpointHighF,DewpointAvgF,DewpointLowF,HumidityHigh,HumidityAvg,HumidityLow,PressureMaxIn,PressureMinIn,WindSpeedMaxMPH,WindSpeedAvgMPH,GustSpeedMaxMPH,PrecipitationSumIn
2013-1-20,19.0,16.6,12.0,8.0,6.4,5.0,77,64,57,30.24,30.15,8,4,13,0.01
2013-1-21,14.0,8.4,4.0,8.0,-1.0,-5.0,81,65,50,30.21,30.09,17,6,19,0.00
2013-1-22,13.0,7.3,-2.0,2.0,-2.0,-7.0,78,66,55,30.31,30.20,12,3,16,0.00
2013-1-23,25.0,16.8,11.0,16.0,9.0,2.0,86,71,62,30.29,30.03,13,4,19,0.00
2013-1-24,22.0,13.4,4.0,11.0,4.2,-3.0,81,66,55,30.55,30.23,14,4,18,0.00
2013-1-25,35.0,23.9,18.0,22.0,15.9,8.0,91,72,56,30.23,29.89,12,5,20,0.00
2013-1-26,28.0,20.2,10.0,18.0,11.9,6.0,84,70,52,30.30,30.13,10,2,12,0.00
2013-1-27,40.0,30.6,25.0,38.0,26.2,17.0,98,84,67,30.25,29.76,17,6,21,0.33
2013-1-28,49.0,42.8,40.0,48.0,42.4,39.0,100,98,93,29.86,29.64,13,4,16,0.13
2013-1-29,61.0,53.0,39.0,60.0,52.4,39.0,100,98,92,29.64,29.34,15,5,20,0.69
2013-1-30,39.0,30.3,17.0,39.0,29.2,12.0,99,95,81,29.59,29.18,19,4,20,0.63
2013-1-31,17.0,8.7,2.0,12.0,3.4,-4.0,84,79,75,30.14,29.59,13,7,24,0.01
2013-2-1,17.0,6.9,-1.0,15.0,1.3,-6.0,90,77,68,30.28,30.06,12,6,16,0.00
2013-2-2,24.0,17.6,10.0,23.0,13.8,5.0,95,85,70,30.06,29.91,11,2,14,0.00
2013-2-3,23.0,19.8,13.0,19.0,15.4,9.0,95,83,71,29.98,29.86,13,3,16,0.00
2013-2-4,27.0,22.0,12.0,23.0,18.0,8.0,92,84,80,29.90,29.74,12,3,17,0.00
2013-2-5,33.0,25.1,13.0,30.0,21.7,9.0,100,86,80,30.01,29.72,14,3,16,0.00
2013-2-6,40.0,31.6,19.0,35.0,27.2,16.0,89,83,76,30.12,29.96,12,4,19,0.01
2013-2-7,36.0,34.0,30.0,34.0,33.0,29.0,99,97,89,29.98,29.79,8,2,14,0.42
2013-2-8,30.0,25.0,18.0,29.0,22.2,16.0,97,89,79,30.29,29.96,6,1,12,0.09
2013-2-9,33.0,28.2,19.0,30.0,25.9,18.0,95,91,86,30.29,29.94,17,3,23,0.01
2013-2-10,46.0,39.3,30.0,45.0,37.4,29.0,99,94,71,29.95,29.35,23,11,30,0.31
2013-2-11,41.0,32.6,27.0,35.0,26.5,22.0,82,78,75,29.98,29.43,27,10,28,0.01
2013-2-12,34.0,28.3,26.0,27.0,23.7,21.0,93,83,73,30.02,29.81,10,4,15,0.00
2013-2-13,43.0,34.2,25.0,35.0,30.3,24.0,96,86,69,29.81,29.63,8,3,13,0.00
2013-2-14,42.0,36.9,31.0,34.0,31.5,27.0,92,81,61,29.92,29.55,12,5,19,0.00
2013-2-15,32.0,26.4,18.0,29.0,17.8,10.0,93,70,51,30.13,29.92,10,3,16,0.00
2013-2-16,25.0,17.7,12.0,13.0,10.0,7.0,84,72,58,30.14,30.04,11,2,13,0.00
2013-2-17,34.0,23.2,11.0,25.0,15.8,7.0,85,74,58,30.10,29.82,14,6,21,0.00
2013-2-18,54.0,37.4,23.0,45.0,32.5,19.0,97,83,66,29.82,29.39,17,7,21,0.29
2013-2-19,22.0,14.2,10.0,19.0,9.6,5.0,89,82,76,30.04,29.59,13,5,18,0.06
2013-2-20,12.0,11.8,11.0,9.0,8.8,8.0,88,87,87,30.28,30.28,0,0,0,0.01
2013-2-21,28.0,20.8,11.0,26.0,18.1,8.0,95,89,86,30.28,29.85,15,5,27,0.01
2013-2-22,33.0,28.1,25.0,32.0,26.0,23.0,96,92,85,29.85,29.70,11,6,18,0.01
2013-2-23,30.0,25.1,19.0,23.0,20.5,15.0,89,82,73,29.90,29.83,9,4,16,0.01
2013-2-24,35.0,23.6,9.0,26.0,18.5,7.0,93,82,59,30.04,29.89,7,1,8,0.01
2013-2-25,40.0,30.9,20.0,31.0,26.1,18.0,93,83,69,30.05,29.85,7,2,12,0.01
2013-2-26,36.0,33.4,31.0,32.0,30.7,29.0,98,89,77,29.86,29.47,17,7,25,0.02
2013-2-27,35.0,32.0,30.0,33.0,30.7,29.0,97,95,91,29.70,29.50,8,1,12,0.20
2013-2-28,37.0,33.6,29.0,34.0,31.0,25.0,96,90,82,30.01,29.70,6,1,11,0.02
2013-3-1,29.0,26.0,24.0,25.0,21.9,19.0,89,84,75,30.16,30.00,10,4,16,0.01
2013-3-2,30.0,20.8,13.0,20.0,14.5,10.0,88,77,62,30.16,30.09,6,1,9,0.00
2013-3-3,32.0,19.3,6.0,18.0,10.9,3.0,92,72,44,30.09,29.98,5,1,6,0.00
2013-3-4,31.0,25.8,20.0,26.0,20.3,12.0,86,79,69,30.02,29.86,14,5,21,0.00
2013-3-5,35.0,30.8,26.0,33.0,29.7,25.0,96,95,93,30.00,29.74,10,2,16,0.24
2013-3-6,33.0,28.4,24.0,27.0,25.1,22.0,95,87,77,30.24,30.00,9,2,14,0.12
2013-3-7,36.0,28.9,22.0,28.0,23.8,18.0,92,82,66,30.33,30.24,7,1,10,0.14
2013-3-8,37.0,28.9,19.0,31.0,24.8,17.0,93,85,73,30.36,30.18,14,5,18,0.01
2013-3-9,40.0,36.9,34.0,38.0,34.0,29.0,94,89,83,30.18,29.70,18,8,21,0.20
2013-3-10,42.0,40.7,39.0,42.0,40.2,37.0,100,98,87,29.71,29.48,14,4,19,0.76
2013-3-11,40.0,34.7,32.0,40.0,34.0,28.0,100,97,88,29.75,29.49,11,3,17,0.07
2013-3-12,36.0,30.1,26.0,31.0,25.6,20.0,94,83,71,29.99,29.74,16,6,21,0.01
2013-3-13,35.0,28.2,22.0,21.0,19.2,16.0,86,70,45,30.25,29.99,14,3,15,0.00
2013-3-14,37.0,29.5,23.0,33.0,25.9,18.0,95,87,77,30.26,29.98,13,4,19,0.00
2013-3-15,33.0,31.4,30.0,31.0,30.2,28.0,96,95,93,29.99,29.85,5,1,6,0.00
2013-3-16,37.0,32.4,31.0,31.0,27.4,25.0,91,81,76,30.04,29.88,8,2,11,0.00
2013-3-17,34.0,30.6,25.0,29.0,24.5,18.0,85,78,71,30.12,29.86,14,5,18,0.00
2013-3-18,35.0,29.8,21.0,34.0,26.5,15.0,96,87,75,29.86,29.56,20,6,24,0.06
2013-3-19,31.0,23.5,16.0,20.0,15.7,10.0,79,72,60,30.05,29.76,17,8,24,0.01
2013-3-20,26.0,19.5,12.0,19.0,10.5,5.0,76,68,58,30.07,29.97,15,6,22,0.00
2013-3-21,32.0,22.3,12.0,19.0,13.0,8.0,83,68,47,30.01,29.93,7,1,11,0.00
2013-3-22,39.0,28.1,17.0,25.0,19.6,15.0,92,72,51,29.98,29.93,7,1,8,0.00
2013-3-23,42.0,33.7,25.0,30.0,24.1,20.0,90,69,48,30.04,29.92,6,2,11,0.00
2013-3-24,35.0,32.1,30.0,31.0,28.8,26.0,96,88,80,29.96,29.63,13,4,19,0.01
2013-3-25,37.0,32.4,28.0,31.0,26.7,23.0,87,79,72,30.04,29.71,9,2,16,0.02
2013-3-26,40.0,35.2,31.0,29.0,26.8,24.0,81,71,56,30.19,30.03,8,2,12,0.01
2013-3-27,46.0,37.5,32.0,31.0,26.6,23.0,84,66,43,30.26,30.19,5,0,10,0.00
2013-3-28,51.0,38.8,27.0,34.0,28.2,23.0,92,68,42,30.29,30.19,4,1,12,0.00
2013-3-29,57.0,44.3,32.0,35.0,31.4,27.0,82,62,39,30.24,30.13,7,1,9,0.00
2013-3-30,57.0,45.9,34.0,44.0,35.4,-99.9,89,70,53,30.14,29.78,17,6,23,0.00
2013-3-31,56.0,45.2,35.0,45.0,37.8,27.0,96,77,51,29.86,29.69,17,5,24,0.00
2013-4-1,40.0,33.5,28.0,27.0,21.7,18.0,78,63,43,30.14,29.86,11,3,16,0.00
2013-4-2,45.0,33.2,22.0,24.0,20.2,17.0,88,62,34,30.24,30.14,10,2,19,0.00
2013-4-3,47.0,35.4,22.0,24.0,21.1,17.0,90,59,33,30.36,30.22,8,2,13,0.00
2013-4-4,59.0,44.2,29.0,39.0,29.4,22.0,80,58,37,30.22,29.91,11,3,15,0.00
2013-4-5,54.0,43.0,32.0,35.0,29.4,20.0,87,61,34,30.14,29.96,13,2,23,0.00
2013-4-6,69.0,51.6,37.0,52.0,36.2,21.0,87,57,35,30.00,29.52,30,10,32,0.19
2013-4-7,61.0,50.4,40.0,47.0,42.0,37.0,90,74,51,29.87,29.59,10,3,16,0.19
2013-4-8,71.0,56.1,43.0,60.0,50.6,38.0,99,83,57,29.83,29.45,24,4,29,0.67
2013-4-9,64.0,50.4,42.0,59.0,47.9,40.0,96,91,82,29.84,29.71,13,6,21,0.09
2013-4-10,42.0,40.4,36.0,41.0,39.3,35.0,98,96,94,30.04,29.70,16,6,22,0.94
2013-4-11,48.0,42.5,38.0,47.0,41.6,36.0,99,97,93,29.70,29.49,20,6,31,0.56
2013-4-12,43.0,38.8,37.0,40.0,35.1,32.0,95,87,77,29.79,29.49,12,5,21,0.04
2013-4-13,46.0,39.6,34.0,36.0,32.5,29.0,90,76,60,29.89,29.78,12,4,18,0.00
2013-4-14,74.0,54.5,39.0,55.0,43.7,35.0,85,69,44,29.89,29.49,27,10,34,0.01
2013-4-15,65.0,53.1,42.0,56.0,48.3,38.0,100,85,49,29.93,29.51,13,4,32,0.38
2013-4-16,54.0,45.4,35.0,43.0,38.4,33.0,96,77,57,30.17,29.90,11,1,12,0.06
2013-4-17,51.0,44.8,42.0,50.0,41.5,35.0,99,89,72,30.19,29.64,13,6,23,1.73
2013-4-18,62.0,51.8,38.0,62.0,50.6,33.0,100,96,82,29.70,29.34,22,7,29,1.79
2013-4-19,39.0,37.0,34.0,34.0,31.5,29.0,87,81,73,29.89,29.44,18,10,27,0.02
2013-4-20,46.0,37.7,30.0,32.0,28.7,25.0,94,72,45,30.29,29.88,8,1,12,0.00
2013-4-21,56.0,45.0,35.0,42.0,35.0,29.0,81,69,56,30.39,30.18,24,10,25,0.00
2013-4-22,67.0,55.0,41.0,46.0,40.9,35.0,82,61,39,30.20,29.93,17,7,21,0.00
2013-4-23,57.0,44.4,39.0,50.0,42.7,37.0,97,94,67,29.96,29.85,10,2,18,0.36
2013-4-24,52.0,43.4,36.0,37.0,32.8,29.0,94,69,42,30.02,29.90,13,4,16,0.03
2013-4-25,53.0,44.5,37.0,39.0,31.5,24.0,91,63,33,30.22,29.98,11,5,21,0.03
2013-4-26,67.0,54.2,41.0,51.0,41.9,31.0,77,64,52,30.22,30.14,18,8,30,0.00
2013-4-27,66.0,56.6,44.0,51.0,47.4,42.0,96,73,51,30.20,29.91,17,3,18,0.00
2013-4-28,70.0,59.7,50.0,54.0,51.2,48.0,95,75,52,29.92,29.73,7,1,10,0.00
2013-4-29,77.0,64.2,49.0,60.0,55.1,47.0,96,74,48,29.82,29.63,18,8,24,0.00
2013-4-30,87.0,73.8,62.0,63.0,57.1,52.0,92,61,32,29.82,29.64,21,10,28,0.00
2013-5-1,85.0,74.9,64.0,59.0,54.8,48.0,77,52,29,30.04,29.82,13,6,19,0.00
2013-5-2,63.0,53.3,43.0,51.0,44.9,39.0,87,74,59,30.17,30.02,12,4,20,0.01
2013-5-3,52.0,45.5,39.0,51.0,44.3,38.0,98,96,89,30.09,29.83,11,4,18,0.66
2013-5-4,72.0,60.1,51.0,58.0,54.8,50.0,97,84,62,29.96,29.83,11,4,15,0.02
2013-5-5,75.0,62.1,49.0,56.0,49.9,45.0,99,69,36,29.96,29.87,11,2,16,0.01
2013-5-6,75.0,63.4,51.0,54.0,46.2,38.0,88,57,27,29.98,29.89,10,2,13,0.01
2013-5-7,79.0,67.0,54.0,48.0,43.3,37.0,76,46,24,29.98,29.89,5,0,9,0.00
2013-5-8,81.0,67.9,52.0,54.0,48.6,43.0,81,53,28,29.96,29.87,7,1,11,0.00
2013-5-9,72.0,64.4,61.0,62.0,59.2,54.0,98,84,65,29.89,29.70,14,4,22,0.18
2013-5-10,63.0,50.0,47.0,62.0,46.2,-99.9,98,92,84,29.92,29.70,8,2,16,0.10
2013-5-11,60.0,50.6,44.0,52.0,37.9,-99.9,98,68,32,30.02,29.80,14,4,23,0.01
2013-5-12,57.0,47.0,36.0,34.0,29.6,26.0,76,53,32,30.08,30.00,11,2,21,0.01
2013-5-13,42.0,41.6,41.0,32.0,31.2,30.0,69,66,63,30.05,30.03,0,0,0,0.00
2013-5-17,79.0,71.4,62.0,61.0,50.3,-99.9,77,62,50,29.93,29.86,11,3,16,0.02
2013-5-18,82.0,71.0,59.0,66.0,60.1,53.0,89,70,51,29.94,29.83,11,3,18,0.01
2013-5-19,90.0,75.3,63.0,69.0,64.4,60.0,94,71,47,29.86,29.62,17,5,38,0.04
2013-5-20,84.0,73.6,64.0,68.0,62.6,60.0,92,71,44,29.70,29.54,18,7,27,0.14
2013-5-21,81.0,71.0,63.0,67.0,60.7,57.0,94,72,49,29.61,29.56,17,6,24,0.10
2013-5-22,72.0,65.1,60.0,62.0,57.5,53.0,93,77,53,29.69,29.54,11,3,18,0.02
2013-5-23,65.0,57.8,49.0,57.0,51.1,44.0,97,80,53,30.19,29.69,10,2,17,0.10
2013-5-24,67.0,53.1,36.0,45.0,39.3,34.0,92,63,34,30.37,30.19,7,1,12,0.04
2013-5-25,56.0,51.2,47.0,46.0,42.6,37.0,91,73,56,30.30,30.19,7,2,12,0.18
2013-5-26,59.0,53.5,46.0,56.0,48.3,39.0,94,83,69,30.20,30.01,16,2,16,0.37
2013-5-27,69.0,61.9,56.0,65.0,60.0,55.0,98,93,85,30.03,29.74,7,3,13,0.12
2013-5-28,79.0,69.2,61.0,73.0,66.5,60.0,99,91,82,29.76,29.60,15,5,23,0.06
2013-5-29,85.0,73.5,63.0,73.0,66.8,60.0,96,81,58,29.84,29.63,13,5,22,0.10
2013-5-30,84.0,73.5,63.0,71.0,66.9,61.0,97,81,60,29.80,29.63,28,10,32,0.43
2013-5-31,74.0,68.0,62.0,69.0,65.2,61.0,98,91,73,29.73,29.61,14,5,31,0.49
2013-6-1,77.0,69.4,64.0,69.0,64.6,59.0,98,86,61,29.67,29.58,12,5,18,0.02
2013-6-2,64.0,58.8,50.0,61.0,52.2,46.0,97,80,65,29.96,29.67,11,2,14,0.00
2013-6-3,71.0,58.7,45.0,52.0,47.7,44.0,98,70,42,30.05,29.94,5,1,12,0.00
2013-6-4,73.0,63.6,52.0,53.0,49.5,41.0,92,63,39,30.09,29.96,10,2,14,0.00
2013-6-5,69.0,61.3,56.0,62.0,55.3,48.0,95,81,62,30.02,29.85,8,1,8,0.32
2013-6-6,67.0,60.0,55.0,61.0,56.3,52.0,98,88,77,29.87,29.79,7,1,8,0.50
2013-6-7,73.0,63.2,56.0,59.0,53.9,48.0,93,73,52,29.89,29.82,6,1,12,0.01
2013-6-8,76.0,65.6,50.0,55.0,50.4,46.0,89,61,39,29.91,29.85,6,1,11,0.00
2013-6-9,82.0,68.8,61.0,65.0,58.0,47.0,94,70,46,29.89,29.70,14,4,22,0.07
2013-6-10,79.0,69.3,58.0,67.0,62.4,57.0,100,81,55,29.80,29.67,6,1,11,0.04
2013-6-11,88.0,74.9,61.0,70.0,64.8,59.0,97,73,47,29.85,29.72,10,2,17,0.01
2013-6-12,92.0,78.0,67.0,75.0,69.7,65.0,97,77,55,29.83,29.50,13,3,21,0.48
2013-6-13,82.0,71.6,60.0,66.0,61.1,58.0,98,72,47,29.95,29.58,8,1,9,0.52
2013-6-14,78.0,68.0,54.0,62.0,57.7,51.0,92,71,49,30.07,29.90,8,1,11,0.01
2013-6-15,83.0,71.9,64.0,72.0,65.7,58.0,95,81,63,29.95,29.76,17,3,23,0.14
2013-6-16,85.0,74.9,67.0,70.0,65.0,59.0,93,73,46,29.86,29.81,10,2,19,0.01
2013-6-17,87.0,76.7,62.0,66.0,60.1,56.0,89,59,36,29.88,29.78,7,1,13,0.00
2013-6-18,78.0,68.2,58.0,63.0,57.4,52.0,83,69,55,29.98,29.82,10,2,14,0.00
2013-6-19,83.0,69.0,52.0,62.0,55.2,47.0,83,63,41,30.06,29.96,5,1,9,0.00
2013-6-20,88.0,72.8,60.0,66.0,60.5,55.0,84,67,46,30.06,29.99,8,2,13,0.00
2013-6-22,84.0,79.3,73.0,77.0,72.6,67.0,86,80,67,30.05,29.85,15,5,20,0.33
2013-6-23,88.0,74.3,68.0,76.0,69.5,66.0,96,86,65,29.95,29.79,13,3,18,0.03
2013-6-24,83.0,71.1,66.0,74.0,68.3,64.0,99,92,73,30.00,29.80,17,3,23,1.00
2013-6-25,83.0,75.5,67.0,77.0,72.5,66.0,99,91,79,29.88,29.72,14,2,15,0.15
2013-6-26,84.0,76.3,71.0,74.0,71.6,69.0,98,86,70,29.74,29.61,9,2,15,0.15
2013-6-27,89.0,78.7,70.0,75.0,70.2,62.0,99,77,49,29.76,29.66,12,2,18,0.01
2013-6-28,82.0,72.8,65.0,67.0,63.4,60.0,90,73,53,29.70,29.57,13,2,19,0.01
2013-6-29,72.0,66.3,63.0,67.0,63.7,60.0,98,92,72,29.72,29.55,9,1,15,0.57
2013-6-30,79.0,69.0,61.0,65.0,60.8,55.0,95,76,57,29.94,29.72,7,1,11,0.01
2013-7-1,78.0,67.5,56.0,58.0,54.2,51.0,87,65,40,30.01,29.93,8,2,15,0.00
2013-7-2,77.0,66.4,56.0,60.0,54.7,47.0,89,68,39,30.03,29.96,7,1,13,0.00
2013-7-3,75.0,64.2,53.0,63.0,57.7,51.0,96,80,61,30.01,29.95,4,0,7,0.00
2013-7-4,85.0,72.9,59.0,69.0,63.1,58.0,98,74,46,30.01,29.92,8,1,12,0.00
2013-7-5,85.0,75.1,62.0,70.0,64.4,59.0,93,71,51,30.00,29.92,9,3,13,0.00
2013-7-6,86.0,75.0,64.0,72.0,66.1,61.0,93,75,54,29.97,29.88,8,2,11,0.00
2013-7-7,92.0,80.3,70.0,75.0,70.6,68.0,96,74,52,29.92,29.86,9,2,13,0.00
2013-7-8,88.0,79.5,71.0,77.0,73.2,69.0,97,82,66,29.96,29.86,11,4,17,0.59
2013-7-9,86.0,79.3,74.0,79.0,75.3,72.0,96,88,77,29.92,29.80,9,2,13,0.11
2013-7-10,84.0,76.7,65.0,77.0,66.5,-99.9,97,75,53,29.93,29.78,6,1,13,0.04
2013-7-11,80.0,70.0,59.0,64.0,59.9,56.0,95,73,46,30.04,29.93,5,1,11,0.00
2013-7-12,83.0,70.8,58.0,65.0,60.1,56.0,93,71,45,30.08,30.00,4,0,7,0.00
2013-7-13,83.0,72.4,60.0,66.0,62.0,56.0,95,72,48,30.08,30.00,6,1,12,0.00
2013-7-14,86.0,76.7,64.0,73.0,68.8,61.0,95,78,62,30.13,30.06,7,1,11,0.00
2013-7-15,91.0,79.7,70.0,77.0,72.9,68.0,94,81,60,30.19,30.12,6,0,9,0.00
2013-7-16,91.0,82.2,74.0,79.0,75.6,73.0,97,81,63,30.23,30.16,7,1,10,0.00
2013-7-17,93.0,83.3,73.0,78.0,75.0,71.0,97,77,58,30.24,30.11,7,1,9,0.00
2013-7-18,92.0,83.9,74.0,79.0,75.2,72.0,97,77,58,30.12,29.88,8,2,11,0.00
2013-7-19,93.0,82.8,70.0,76.0,73.3,68.0,97,75,51,29.88,29.70,11,5,21,0.36
2013-7-20,87.0,75.8,64.0,71.0,67.5,63.0,98,78,54,29.86,29.76,4,0,8,0.36
2013-7-21,83.0,74.0,64.0,73.0,68.4,63.0,98,83,67,29.88,29.78,7,1,12,0.01
2013-7-22,87.0,75.6,64.0,74.0,68.9,64.0,99,81,61,29.82,29.66,8,1,14,0.08
2013-7-23,78.0,69.8,61.0,67.0,62.5,57.0,97,79,55,29.90,29.67,8,1,11,0.09
2013-7-24,75.0,64.8,54.0,59.0,55.9,53.0,97,75,51,30.00,29.90,6,0,11,0.00
2013-7-25,81.0,69.4,57.0,64.0,59.5,53.0,92,72,54,30.04,29.95,7,1,11,0.00
2013-7-26,71.0,66.1,60.0,66.0,63.0,57.0,98,90,75,29.96,29.84,8,3,13,0.19
2013-7-27,63.0,58.9,53.0,57.0,52.6,48.0,95,80,63,29.89,29.83,9,1,13,0.01
2013-7-28,69.0,60.5,52.0,55.0,52.3,48.0,90,75,55,29.97,29.83,9,1,12,0.00
2013-7-29,77.0,63.0,49.0,63.0,55.7,48.0,97,79,54,30.09,29.97,6,1,9,0.00
2013-7-30,67.0,63.7,59.0,66.0,62.1,56.0,99,94,89,30.08,29.98,7,0,12,0.09
2013-7-31,79.0,68.7,64.0,70.0,66.1,64.0,100,92,69,29.99,29.89,7,0,8,0.25
2013-8-1,80.0,69.7,59.0,65.0,60.5,56.0,100,76,45,29.96,29.84,8,1,15,0.22
2013-8-2,84.0,73.8,65.0,72.0,66.2,61.0,92,78,59,29.89,29.79,5,1,11,0.01
2013-8-3,80.0,70.6,59.0,64.0,59.0,55.0,95,70,44,30.03,29.89,6,1,8,0.01
2013-8-4,80.0,68.0,54.0,61.0,56.3,52.0,93,69,39,30.13,30.02,5,0,8,0.00
2013-8-5,72.0,65.8,59.0,67.0,62.1,56.0,99,88,76,30.03,29.80,10,2,22,0.49
2013-8-6,84.0,73.7,67.0,75.0,70.8,66.0,100,91,71,29.83,29.74,6,1,10,0.01
2013-8-7,87.0,76.5,66.0,76.0,70.7,63.0,100,84,58,29.89,29.71,7,1,12,0.00
2013-8-8,80.0,70.7,62.0,67.0,64.3,61.0,98,81,62,29.96,29.88,7,1,11,0.00
2013-8-9,82.0,70.7,59.0,72.0,64.5,57.0,95,81,61,29.99,29.91,7,1,9,0.10
2013-8-10,80.0,68.8,58.0,63.0,59.5,57.0,96,74,47,30.09,29.99,5,0,11,0.10
2013-8-11,84.0,70.5,56.0,68.0,62.3,54.0,98,77,56,30.06,29.95,8,1,13,0.00
2013-8-12,84.0,73.9,65.0,72.0,66.9,59.0,93,79,62,29.97,29.82,10,2,10,0.00
2013-8-13,73.0,62.9,56.0,60.0,51.9,-99.9,95,72,46,30.07,29.89,6,1,12,0.00
2013-8-14,75.0,61.9,48.0,58.0,49.7,-99.9,96,73,47,30.16,30.06,7,0,8,0.00
2013-8-15,77.0,59.1,55.0,59.0,41.1,-99.9,92,69,45,30.11,30.03,5,0,7,0.00
2013-8-16,81.0,66.0,52.0,62.0,53.3,-99.9,96,70,43,30.11,30.06,4,0,8,0.00
2013-8-17,83.0,68.4,54.0,62.0,55.4,-99.9,91,67,44,30.17,30.07,6,1,8,0.00
2013-8-18,84.0,69.5,55.0,63.0,58.4,53.0,95,70,44,30.14,30.02,5,0,9,0.00
2013-8-19,85.0,68.4,58.0,68.0,51.8,-99.9,97,75,51,30.05,29.94,6,1,11,0.00
2013-8-20,87.0,74.5,64.0,71.0,64.7,-99.9,96,76,51,30.03,29.94,12,2,15,0.00
2013-8-21,90.0,78.3,69.0,71.0,68.4,65.0,90,73,53,30.00,29.89,10,3,16,0.00
2013-8-22,77.0,71.7,66.0,71.0,68.3,65.0,97,89,78,30.09,29.93,6,1,11,0.29
2013-8-23,84.0,70.9,59.0,68.0,61.2,56.0,99,75,46,30.11,30.02,7,1,13,0.01
2013-8-24,87.0,72.2,60.0,71.0,62.2,-99.9,92,73,54,30.17,30.07,8,2,12,0.00
2013-8-25,91.0,78.6,67.0,72.0,68.1,65.0,93,72,47,30.16,30.05,11,3,15,0.00
2013-8-26,93.0,79.4,66.0,75.0,69.9,63.0,92,74,51,30.08,29.92,10,2,12,0.00
2013-8-27,94.0,80.9,73.0,75.0,72.7,70.0,93,78,52,29.94,29.82,12,3,15,0.00
2013-8-28,89.0,83.6,74.0,79.0,75.9,71.0,90,78,71,29.95,29.88,7,1,11,0.00
2013-8-29,89.0,76.1,66.0,74.0,70.5,65.0,99,84,57,30.01,29.90,5,1,8,0.00
2013-8-30,98.0,81.2,71.0,78.0,71.9,69.0,96,77,42,29.91,29.69,10,2,14,0.18
2013-8-31,83.0,73.9,69.0,73.0,68.6,-99.9,98,86,71,29.78,29.70,6,1,11,0.18
2013-9-1,81.0,68.9,61.0,73.0,66.6,60.0,99,93,77,29.74,29.70,5,0,7,0.01
2013-9-4,86.0,79.2,67.0,65.0,63.0,59.0,86,59,46,30.07,29.99,7,1,10,0.01
2013-9-5,80.0,70.2,63.0,67.0,63.3,53.0,97,80,61,30.15,30.03,10,2,14,0.01
2013-9-6,89.0,73.0,59.0,68.0,60.8,52.0,86,68,47,30.13,29.93,11,2,15,0.00
2013-9-7,92.0,76.7,66.0,71.0,64.9,-99.9,90,71,48,29.94,29.80,9,2,13,0.00
2013-9-8,82.0,74.8,70.0,72.0,69.2,67.0,92,83,69,29.94,29.84,11,2,14,0.00
2013-9-9,99.0,82.5,68.0,75.0,71.6,67.0,99,73,40,29.86,29.73,11,3,15,0.00
2013-9-10,96.0,84.6,72.0,71.0,65.9,62.0,76,56,33,29.93,29.81,23,4,23,0.00
2013-9-11,87.0,78.2,70.0,72.0,68.2,65.0,88,72,58,29.97,29.92,7,1,14,0.00
2013-9-12,80.0,70.0,57.0,67.0,57.8,49.0,97,69,39,30.03,29.92,8,1,17,0.00
2013-9-13,70.0,58.5,47.0,51.0,43.6,35.0,90,62,29,30.14,30.03,7,1,12,0.00
2013-9-14,76.0,59.1,42.0,51.0,43.7,-99.9,96,62,35,30.11,29.93,10,2,11,0.00
2013-9-15,60.0,57.6,53.0,59.0,53.5,47.0,97,87,66,30.11,29.91,4,0,8,0.70
2013-9-16,69.0,58.4,51.0,55.0,50.2,47.0,98,77,47,30.29,30.11,7,2,12,0.01
2013-9-17,71.0,58.4,46.0,60.0,53.0,44.0,97,83,59,30.25,30.01,10,2,13,0.05
2013-9-18,73.0,63.5,61.0,70.0,58.6,56.0,91,84,80,30.01,29.84,6,2,9,0.08
2013-9-19,77.0,71.8,68.0,71.0,68.9,66.0,95,90,71,29.84,29.73,10,2,14,0.08
2013-9-20,71.0,66.3,56.0,67.0,60.8,52.0,98,84,58,29.80,29.70,7,2,14,0.24
2013-9-21,72.0,58.5,49.0,55.0,49.2,-99.9,97,76,47,29.88,29.78,2,0,7,0.05
2013-9-22,73.0,58.0,43.0,53.0,48.1,41.0,97,72,44,29.99,29.88,4,0,8,0.00
2013-9-23,78.0,60.1,46.0,55.0,49.8,44.0,95,72,41,30.02,29.91,6,1,8,0.00
2013-9-24,76.0,61.1,49.0,57.0,51.5,46.0,93,73,45,29.94,29.83,5,1,13,0.00
2013-9-25,82.0,63.9,50.0,57.0,51.5,47.0,95,68,38,29.89,29.82,6,0,8,0.00
2013-9-26,87.0,62.0,50.0,60.0,52.8,48.0,98,76,39,29.98,29.88,3,0,7,0.00
2013-9-27,88.0,63.2,53.0,59.0,52.4,50.0,93,72,31,30.05,29.93,0,0,5,0.00
2013-9-28,86.0,67.3,56.0,68.0,57.9,-99.9,94,76,49,29.96,29.79,7,0,7,0.04
2013-9-29,76.0,58.3,47.0,58.0,49.3,44.0,100,75,32,30.01,29.90,5,0,7,0.05
2013-9-30,83.0,57.7,45.0,56.0,47.5,42.0,98,73,30,29.92,29.76,1,0,3,0.01
2013-10-1,77.0,71.7,67.0,64.0,62.5,60.0,82,73,64,29.89,29.83,0,0,1,0.00
2013-10-2,88.0,71.0,57.0,65.0,57.6,46.0,94,67,30,30.01,29.87,8,1,11,0.00
2013-10-3,74.0,68.8,64.0,74.0,67.7,58.0,100,96,79,29.88,29.75,1,0,4,1.23
2013-10-4,74.0,69.6,66.0,73.0,68.7,65.0,99,97,90,29.90,29.80,4,0,10,0.31
2013-10-5,78.0,70.1,58.0,74.0,67.0,50.0,100,90,76,29.83,29.70,6,0,7,0.01
2013-10-6,61.0,49.9,44.0,50.0,43.7,41.0,96,80,55,29.73,29.64,3,0,8,0.01
2013-10-7,71.0,50.3,42.0,50.0,45.9,41.0,99,87,46,30.01,29.72,1,0,4,0.01
2013-10-8,80.0,60.6,44.0,57.0,49.0,43.0,99,71,36,30.10,30.01,2,0,4,0.00
2013-10-9,77.0,60.1,47.0,55.0,48.6,45.0,96,70,35,30.14,30.02,2,0,5,0.00
2013-10-10,79.0,64.7,50.0,61.0,54.0,45.0,90,70,51,30.08,29.94,3,0,4,0.00
2013-10-11,78.0,65.5,53.0,63.0,56.3,52.0,97,75,50,29.96,29.81,10,2,17,0.02
2013-10-12,71.0,62.3,50.0,61.0,50.7,-99.9,90,69,41,30.11,29.83,11,3,16,0.01
2013-10-13,65.0,51.1,39.0,47.0,38.6,35.0,93,66,34,30.33,30.11,4,0,9,0.01
2013-10-14,65.0,50.5,37.0,48.0,40.7,35.0,96,72,45,30.33,30.08,11,2,15,0.00
2013-10-18,49.0,46.8,44.0,44.0,40.6,39.0,96,79,70,29.89,29.80,7,2,14,0.01
2013-10-19,54.0,44.1,38.0,41.0,36.2,-99.9,92,77,50,29.88,29.70,17,3,23,0.00
2013-10-20,61.0,48.3,33.0,48.0,42.1,32.0,98,80,59,29.77,29.65,9,2,13,0.01
2013-10-21,54.0,42.9,34.0,46.0,32.8,25.0,84,68,46,29.91,29.74,15,3,18,0.01
2013-10-22,38.0,34.1,28.0,37.0,32.3,26.0,98,94,79,29.92,29.83,6,0,7,0.13
2013-10-23,44.0,37.2,31.0,35.0,31.7,29.0,98,82,63,29.97,29.87,5,1,13,0.01
2013-10-24,41.0,36.7,31.0,35.0,28.8,25.0,91,73,58,30.24,29.96,11,2,14,0.01
2013-10-25,52.0,44.9,27.0,36.0,30.1,25.0,92,58,42,30.32,29.97,14,7,21,0.00
2013-10-26,53.0,44.9,36.0,38.0,31.0,-99.9,77,60,46,30.02,29.81,16,5,20,0.00
2013-10-27,55.0,41.3,28.0,36.0,31.3,27.0,95,70,42,30.01,29.86,12,2,16,0.00
2013-10-28,58.0,42.8,32.0,45.0,35.4,-99.9,89,78,58,30.27,29.96,15,3,18,0.00
2013-10-29,58.0,46.4,37.0,45.0,39.3,33.0,94,78,52,30.27,30.03,7,2,14,0.00
2013-10-30,59.0,53.1,47.0,59.0,52.5,44.0,100,98,86,30.03,29.69,7,1,12,0.79
2013-10-31,63.0,57.3,44.0,63.0,56.8,42.0,100,98,92,29.69,29.23,11,4,15,0.62
2013-11-1,48.0,45.1,43.0,45.0,42.7,41.0,96,91,86,29.69,29.38,10,4,15,0.01
2013-11-2,51.0,41.2,35.0,41.0,35.2,-99.9,99,83,62,30.07,29.68,9,2,15,0.01
2013-11-3,52.0,40.7,29.0,41.0,35.2,28.0,98,82,60,30.20,30.06,13,3,14,0.01
2013-11-4,57.0,49.4,42.0,47.0,42.3,37.0,84,77,63,30.13,29.96,21,6,22,0.01
2013-11-5,55.0,52.1,50.0,54.0,49.8,46.0,99,92,82,30.15,29.82,19,4,22,0.05
2013-11-6,57.0,45.5,32.0,56.0,42.8,28.0,99,90,75,30.11,29.69,13,4,21,0.36
2013-11-7,39.0,32.8,29.0,35.0,29.5,26.0,92,88,84,30.17,30.11,7,2,14,0.01
2013-11-8,49.0,39.5,28.0,38.0,32.5,26.0,95,77,56,30.23,29.80,14,4,22,0.01
2013-11-9,58.0,49.1,40.0,43.0,38.2,-99.9,82,69,56,30.08,29.76,18,7,24,0.00
2013-11-10,48.0,40.7,31.0,35.0,32.3,28.0,90,73,56,30.29,30.10,8,2,13,0.00
2013-11-11,46.0,37.4,23.0,38.0,31.5,18.0,96,80,68,30.46,30.00,9,4,16,0.03
2013-11-12,32.0,23.8,18.0,23.0,17.6,14.0,90,77,63,30.65,30.47,8,2,12,0.02
2013-11-13,42.0,30.7,19.0,24.0,20.4,15.0,88,67,45,30.53,30.07,20,8,24,0.01
2013-11-14,51.0,41.4,32.0,32.0,27.4,21.0,72,58,47,30.06,29.83,16,8,23,0.01
2013-11-15,54.0,43.6,34.0,39.0,32.8,26.0,85,66,51,29.88,29.81,12,6,15,0.00
2013-11-16,58.0,50.1,40.0,56.0,47.0,-99.9,97,92,85,29.81,29.45,16,9,30,0.03
2013-11-17,68.0,54.8,42.0,65.0,52.1,38.0,98,91,81,29.72,29.07,19,7,26,0.31
2013-11-18,43.0,37.3,29.0,38.0,30.8,26.0,89,78,60,30.19,29.72,16,5,22,0.01
2013-11-19,41.0,32.5,23.0,32.0,27.9,22.0,95,84,67,30.27,30.15,12,3,15,0.00
2013-11-20,40.0,36.6,33.0,38.0,33.1,29.0,95,87,79,30.16,29.96,15,8,21,0.32
2013-11-21,46.0,42.1,40.0,44.0,40.7,38.0,97,94,90,30.16,30.00,5,0,8,0.16
2013-11-22,41.0,33.6,24.0,40.0,30.2,21.0,96,88,76,30.42,30.16,12,2,15,0.02
2013-11-23,25.0,20.0,12.0,20.0,11.8,-99.9,89,73,54,30.64,30.38,12,4,20,0.01
2013-11-24,28.0,18.7,9.0,14.0,9.7,5.0,88,69,45,30.63,30.28,11,4,15,0.00
2013-11-25,33.0,28.4,22.0,29.0,22.8,15.0,93,80,64,30.28,30.00,16,6,22,0.00
2013-11-26,33.0,27.2,14.0,28.0,21.5,7.0,92,79,64,30.14,29.97,12,3,16,0.00
2013-11-27,27.0,19.1,11.0,18.0,11.1,5.0,78,71,58,30.20,30.13,9,2,13,0.00
2013-11-28,33.0,25.2,18.0,22.0,17.7,14.0,88,73,61,30.41,30.06,10,3,12,0.00
2013-11-29,34.0,24.5,14.0,25.0,18.7,12.0,93,80,61,30.53,30.29,11,3,15,0.00
2013-11-30,50.0,36.8,28.0,36.0,29.0,-99.9,92,76,59,30.28,29.96,13,4,15,0.00
2013-12-1,44.0,34.9,29.0,34.0,29.9,27.0,95,83,65,30.04,29.93,6,1,10,0.00
2013-12-2,42.0,37.0,33.0,37.0,33.2,31.0,100,86,71,29.89,29.62,12,4,16,0.06
2013-12-3,45.0,41.5,37.0,45.0,41.1,35.0,100,99,94,29.62,29.55,12,4,15,0.01
2013-12-4,52.0,45.9,32.0,52.0,45.8,30.0,100,100,94,29.66,29.40,17,5,21,0.01
2013-12-5,31.0,22.5,18.0,29.0,17.4,12.0,94,81,71,30.20,29.66,19,7,24,0.01
2013-12-6,19.0,14.8,10.0,13.0,8.7,5.0,83,76,63,30.49,30.19,10,4,13,0.00
2013-12-7,19.0,10.9,5.0,9.0,3.4,-99.9,86,74,56,30.64,30.49,7,1,9,0.00
2013-12-8,23.0,19.1,11.0,22.0,15.4,7.0,96,85,69,30.53,29.89,13,3,18,0.00
2013-12-9,22.0,12.0,-1.0,21.0,8.5,-6.0,100,85,72,30.14,29.88,13,4,19,0.00
2013-12-10,20.0,11.6,-4.0,15.0,6.0,-8.0,87,78,71,30.22,29.91,17,5,23,0.00
2013-12-11,18.0,10.5,-4.0,15.0,5.6,-9.0,93,81,63,30.48,30.18,11,2,14,0.00
2013-12-12,20.0,9.8,-4.0,13.0,4.5,-8.0,90,79,69,30.46,30.13,12,4,16,0.00
2013-12-13,29.0,21.5,10.0,28.0,17.9,8.0,96,86,77,30.13,29.97,11,3,14,0.00
2013-12-14,30.0,25.9,18.0,29.0,23.0,-99.9,98,92,86,30.01,29.87,13,4,15,0.01
2013-12-15,19.0,12.9,9.0,16.0,7.9,4.0,88,80,75,30.04,29.91,11,4,16,0.01
2013-12-16,18.0,13.9,9.0,17.0,10.2,3.0,94,85,65,30.04,29.92,7,2,10,0.00
2013-12-17,35.0,25.4,18.0,29.0,21.3,15.0,96,85,65,30.06,29.90,18,6,20,0.00
2013-12-18,36.0,24.8,13.0,27.0,19.2,11.0,91,79,58,30.07,29.73,16,4,26,0.00
2013-12-19,37.0,33.2,27.0,34.0,30.9,25.0,98,91,84,29.81,29.70,11,4,18,0.21
2013-12-20,34.0,29.7,26.0,34.0,29.0,25.0,98,97,96,29.75,29.66,9,3,14,0.23
2013-12-21,30.0,27.6,26.0,29.0,25.8,-99.9,100,96,95,29.78,29.54,13,2,14,0.01
2013-12-22,31.0,27.2,21.0,31.0,25.6,18.0,98,93,88,30.07,29.54,8,1,14,0.06
2013-12-23,20.0,4.0,-4.0,18.0,0.3,-8.0,97,84,78,30.39,30.07,8,2,17,0.01
2013-12-24,19.0,1.0,-10.0,16.0,-2.6,-13.0,90,84,77,30.47,30.23,12,2,18,0.00
2013-12-25,26.0,23.2,19.0,25.0,20.5,15.0,95,89,81,30.23,30.05,11,5,14,0.00
2013-12-26,33.0,25.1,14.0,30.0,21.7,11.0,94,87,81,30.17,30.06,14,4,17,0.01
2013-12-27,38.0,29.8,17.0,33.0,26.7,16.0,97,89,80,30.19,30.01,15,5,20,0.16
2013-12-28,43.0,35.9,29.0,36.0,31.9,27.0,95,86,73,30.03,29.83,15,6,18,0.29
2013-12-29,25.0,14.9,3.0,20.0,9.7,-4.0,82,79,77,30.16,29.93,13,6,18,0.01
2013-12-30,7.0,1.1,-5.0,3.0,-4.5,-10.0,87,77,64,30.24,30.11,6,1,10,0.00
2013-12-31,11.0,5.6,-2.0,8.0,2.6,-5.0,89,87,85,30.26,30.11,7,1,13,0.00
2014-1-1,15.0,11.4,8.0,13.0,8.5,5.0,91,88,84,30.19,30.11,10,5,17,0.00
2014-1-2,15.0,9.4,-1.0,10.0,5.6,-4.0,87,84,76,30.35,30.11,7,2,17,0.00